Theta_e
322 321 321 321 321 321 320 319 319 319 319 319 319 319 321 322 322 323 324 324 323 323 323 323 321 321 321 321 320 320 319 320 319 319 320 321 322 322 321 321 321 321
321 321 319 319 319 318 318 319 319 318 319 319 319 319 320 320 321 322 322 322 322 322 323 322 321 321 320 320 319 319 318 318 318 320 321 321 322 322 322 321 321 321
319 319 320 319 319 319 318 318 318 318 318 319 319 319 320 320 321 321 322 322 322 321 321 321 320 319 319 319 318 318 318 318 319 320 320 321 321 320 321 321 320 320
314 317 319 319 319 319 319 318 317 317 317 317 318 319 320 320 320 321 321 317 321 320 320 320 319 319 319 319 318 318 319 320 321 320 320 319 318 319 319 318 317 316
311 313 315 317 318 318 318 317 317 317 317 318 318 317 317 317 317 319 319 319 319 319 319 319 318 318 318 318 319 319 319 320 319 318 317 317 317 318 318 318 317 316
303 304 308 313 315 315 316 316 317 317 316 314 315 312 315 316 317 317 318 318 318 318 317 318 318 318 318 318 318 319 318 317 317 319 318 317 316 315 316 315 315 314
304 304 305 305 307 309 313 313 311 310 312 312 308 308 309 314 315 316 317 316 316 315 317 317 317 318 317 317 317 317 317 318 317 319 317 314 314 313 313 313 311 311
300 300 302 304 304 305 307 308 309 308 308 308 309 307 308 309 311 311 312 314 314 314 314 315 316 316 315 316 317 317 317 318 317 315 314 313 312 311 311 311 311 309
298 299 299 302 304 306 307 307 307 307 308 308 307 306 305 307 309 311 312 312 312 312 313 314 315 315 314 316 316 316 315 313 313 313 312 310 309 308 308 308 307 305
297 297 298 302 305 305 306 306 306 307 307 307 307 307 306 306 307 309 309 310 310 310 310 311 311 312 311 312 313 312 310 309 309 308 307 307 306 305 304 303 301 299
296 296 297 300 303 304 304 305 305 306 306 307 306 305 305 305 305 307 308 309 308 308 309 308 309 309 309 308 308 307 306 305 304 302 301 300 299 297 295 296 295 293
294 295 298 300 302 303 303 304 304 305 305 305 306 304 302 302 302 302 303 303 303 304 304 304 305 305 304 303 303 302 301 299 298 296 295 294 294 293 292 292 290 289
292 292 295 298 298 299 301 302 302 301 301 300 300 300 299 298 297 297 297 298 298 299 300 301 301 301 301 300 299 299 297 296 294 293 292 291 290 289 289 288 288 287
290 291 292 295 297 298 299 298 298 298 297 297 297 296 296 295 295 294 294 294 295 295 296 297 298 297 297 297 297 296 294 293 292 290 289 289 288 287 287 286 285 285
292 292 294 295 295 297 296 296 295 294 294 293 293 292 293 293 293 293 292 292 292 293 293 294 295 294 295 294 294 293 292 291 290 289 288 286 285 285 284 284 283 283
291 292 293 294 295 294 293 293 292 292 291 291 290 290 290 291 291 291 291 291 291 291 291 292 292 292 289 291 292 291 290 289 288 287 286 285 285 284 283 283 282 282
291 291 292 292 293 292 292 291 291 290 289 289 288 289 289 288 289 289 288 289 289 289 289 290 290 290 291 292 292 291 288 287 287 286 286 285 285 284 283 282 282 282
291 291 291 290 291 291 291 290 289 288 287 287 287 286 286 287 287 287 287 288 288 288 287 287 288 290 291 291 291 290 289 286 286 285 284 283 283 283 283 283 282 282
289 289 289 289 289 289 289 288 287 286 286 285 285 285 285 285 285 286 286 286 286 286 286 286 287 290 290 290 290 290 289 286 283 283 282 281 281 282 281 281 282 283
288 288 288 288 288 288 287 286 286 285 284 284 284 284 284 284 284 284 284 285 285 285 285 286 287 289 290 290 290 289 289 287 284 284 283 283 283 283 282 281 282 282
287 287 287 287 287 287 286 285 284 283 282 282 282 282 282 282 283 283 283 284 284 285 285 286 287 290 290 289 289 288 287 285 283 283 282 282 282 282 282 282 282 282
286 286 286 286 286 285 285 284 283 282 281 281 281 281 281 282 282 283 283 284 284 285 285 284 286 289 289 288 288 287 285 283 282 282 281 281 281 281 281 282 282 282
285 285 284 284 285 285 283 282 281 280 280 280 280 280 280 281 281 282 282 283 283 283 282 282 284 286 287 287 286 285 283 281 281 281 281 280 280 280 280 281 281 281
284 284 284 283 283 283 282 281 281 281 281 281 280 280 280 280 280 281 282 283 283 283 283 282 283 285 286 286 285 285 283 281 280 280 279 279 279 279 279 279 280 282
285 285 285 284 283 283 283 283 283 282 282 281 281 281 281 281 281 281 281 282 283 283 283 283 283 284 286 285 285 284 282 280 280 279 278 277 277 277 278 278 278 280
285 285 284 284 284 284 283 283 283 282 282 281 280 280 280 280 280 280 280 280 281 282 283 283 283 283 284 286 285 284 283 280 279 278 277 277 277 277 277 277 277 277
Wind_Speed
10 9 10 9 10 9 9 8 7 8 8 7 8 8 8 8 6 7 9 8 9 9 9 9 8 8 8 7 7 7 7 8 7 6 8 8 9 9 9 9 8 7
10 10 9 8 8 7 7 8 8 8 9 8 8 7 7 6 7 7 8 9 9 9 9 8 8 8 8 7 7 7 6 6 7 5 7 9 8 8 9 9 8 7
8 8 10 10 11 11 11 9 9 8 8 9 8 8 8 7 8 8 8 9 9 9 8 8 7 7 7 7 6 7 7 6 7 6 7 8 7 7 6 7 7 8
8 9 10 11 11 11 10 9 8 8 7 8 9 9 8 8 9 9 8 9 8 8 7 7 8 7 7 6 6 6 7 7 7 6 6 5 5 5 5 4 4 3
8 8 8 9 9 9 8 9 10 9 9 10 8 8 8 7 7 7 7 7 7 7 7 7 6 6 6 6 6 6 6 6 5 5 5 5 4 6 5 6 5 5
4 4 5 6 7 7 9 10 10 9 8 7 9 6 6 7 7 8 8 8 7 7 7 6 6 6 6 6 6 6 6 5 5 6 6 6 4 3 4 2 2 4
6 5 6 4 4 5 7 7 5 5 5 4 3 3 5 7 7 8 7 7 6 6 7 6 6 6 5 5 5 5 5 5 6 7 7 4 5 4 3 4 5 6
4 2 2 1 1 1 2 1 1 2 2 3 3 1 1 4 5 5 5 6 6 6 6 6 6 5 4 5 5 5 4 5 5 5 6 6 6 6 6 6 7 8
0 1 1 1 3 2 3 3 3 3 2 4 4 3 3 3 5 6 6 7 7 6 6 5 6 7 4 6 6 6 6 5 5 6 7 7 7 6 6 8 8 7
0 0 2 3 4 3 4 3 4 4 3 5 5 4 5 5 4 6 6 7 8 7 6 6 6 6 6 4 7 8 7 7 8 8 8 7 8 8 7 7 7 8
0 0 2 2 3 3 4 4 4 4 4 5 5 6 5 6 6 5 7 7 7 7 7 7 6 6 8 7 7 8 9 8 9 9 9 10 9 8 8 8 8 8
0 1 1 2 2 3 4 4 4 4 5 4 5 7 6 6 7 6 6 8 7 7 7 8 7 7 8 8 9 10 10 9 9 11 10 9 8 8 8 7 8 8
0 1 2 2 2 2 3 4 4 4 5 6 5 7 7 8 7 9 6 8 8 8 7 8 8 8 9 9 9 10 10 11 12 11 10 7 8 10 9 9 9 10
0 1 1 2 2 3 4 4 5 5 6 6 6 8 7 7 8 9 7 7 8 8 7 7 9 9 9 9 10 9 11 9 10 12 11 9 12 10 9 9 10 9
1 2 2 3 3 4 4 5 6 6 6 7 7 8 7 7 8 9 10 10 8 8 8 8 9 8 6 8 10 10 10 11 7 10 12 12 11 10 9 10 9 9
2 3 2 3 4 5 5 6 6 7 7 8 8 7 8 7 8 8 9 10 10 10 10 8 7 6 9 12 10 11 10 9 10 10 10 11 11 10 9 8 8 7
3 3 3 4 4 5 6 7 7 7 8 8 8 8 8 7 9 10 9 9 11 10 10 8 7 8 15 15 16 15 11 10 11 10 9 9 8 9 8 7 5 5
3 4 3 3 4 5 6 6 7 8 8 8 8 9 8 8 10 10 10 10 10 10 10 9 8 12 17 17 16 13 13 11 9 9 8 8 7 7 6 6 5 5
3 4 4 4 3 5 6 6 8 8 8 9 9 8 9 11 10 11 10 9 11 11 10 9 9 14 18 19 18 16 15 13 9 9 9 8 7 7 6 5 5 5
4 4 5 4 4 5 6 7 8 8 7 7 8 8 10 10 10 11 9 10 10 12 11 10 9 13 17 18 17 16 14 12 9 10 9 9 8 7 6 5 4 4
5 5 6 5 5 5 7 8 9 9 9 7 7 8 10 10 10 11 9 9 10 10 11 10 9 15 16 16 15 15 16 12 10 9 9 9 8 7 7 6 5 4
7 7 7 6 6 6 8 9 8 9 9 7 9 8 7 8 8 9 10 10 9 10 12 12 10 13 13 14 15 15 14 9 9 10 9 8 8 6 6 5 6 6
8 9 8 8 7 8 8 8 8 8 7 6 10 9 9 9 8 9 8 10 10 10 12 10 10 12 13 14 14 14 11 9 9 8 8 8 7 6 6 7 7 7
9 10 10 9 8 9 9 8 7 6 7 6 10 11 10 9 9 10 8 9 10 10 9 12 10 11 14 14 13 12 8 9 7 8 8 8 7 6 6 7 9 13
9 9 10 10 10 9 9 10 10 9 7 6 7 8 10 9 9 10 10 9 9 10 11 12 11 11 15 15 14 13 9 7 7 8 9 6 6 6 6 6 6 7
9 10 9 10 10 10 9 8 7 8 9 9 8 8 10 9 9 10 12 9 8 8 8 9 11 9 11 16 14 14 11 7 6 8 8 7 6 5 6 5 5 5
Wind_Direction
225 224 229 229 232 229 231 229 223 225 227 224 223 226 223 227 215 212 214 213 212 212 209 208 202 205 207 204 202 202 206 210 208 199 202 207 217 216 215 213 210 209
225 224 229 234 241 233 232 224 226 219 226 221 223 224 224 217 216 208 209 209 207 211 206 204 199 201 201 200 195 197 200 198 210 197 207 210 215 210 215 212 210 212
226 225 225 225 229 231 229 225 223 221 220 220 219 216 219 211 212 207 207 206 206 206 204 197 196 197 197 194 188 193 196 197 203 195 200 209 204 203 211 207 208 208
233 227 227 229 230 234 231 226 225 223 221 222 217 214 210 208 205 205 206 202 202 199 197 191 195 191 188 188 183 192 197 199 199 188 197 200 200 196 199 184 178 157
232 235 235 236 234 233 231 227 228 221 219 222 221 216 212 208 203 204 201 198 194 193 188 190 186 184 181 183 184 190 194 198 193 183 184 187 186 182 176 159 153 164
262 243 249 243 239 231 228 228 228 222 221 223 223 213 211 203 199 198 195 191 190 184 182 178 177 180 177 181 182 191 184 180 177 163 157 157 151 131 134 118 117 97
263 267 257 249 248 245 237 240 244 233 217 199 148 194 199 193 193 193 188 182 171 171 171 170 170 172 176 173 175 178 174 170 169 166 148 126 111 79 66 88 95 92
273 288 277 223 154 79 116 88 86 81 100 104 123 57 104 156 158 151 144 143 143 143 144 143 142 138 148 148 150 148 144 146 146 122 104 108 103 97 89 86 89 91
192 137 107 133 126 122 123 116 106 104 106 114 108 101 69 96 124 126 126 122 118 119 118 119 123 121 127 138 133 126 118 96 93 97 104 106 97 91 93 98 90 80
47 48 112 136 138 138 128 123 118 108 111 107 102 95 96 77 84 106 107 108 108 104 102 104 100 108 94 80 113 110 96 93 85 83 80 81 89 79 73 70 82 84
36 60 105 122 132 129 126 124 122 118 110 113 107 94 89 91 78 78 93 92 96 102 103 94 94 94 100 92 80 88 91 87 88 88 83 77 76 79 74 74 70 73
37 71 88 97 109 116 119 116 115 114 108 87 104 102 86 76 85 72 81 90 84 85 89 91 86 90 93 96 94 92 91 90 87 82 75 78 77 76 83 84 89 84
58 98 122 116 105 107 101 98 96 98 98 98 90 98 99 95 82 85 66 87 87 85 85 93 90 88 95 95 96 93 91 91 88 87 88 85 87 80 68 67 71 72
27 44 70 87 98 102 100 98 96 89 89 89 92 91 90 93 101 96 85 83 83 84 79 90 96 90 87 87 85 88 97 89 98 102 97 85 77 76 78 78 76 75
92 60 68 89 95 97 96 97 93 91 89 87 88 90 88 93 97 103 102 89 78 85 83 71 74 78 88 106 107 95 96 99 97 96 96 92 86 81 77 77 75 79
108 90 91 93 98 99 99 98 96 97 97 95 91 93 95 95 94 87 91 96 92 76 70 73 75 78 91 96 103 111 106 100 92 87 90 93 96 91 79 75 80 84
128 126 115 108 108 107 108 105 103 102 100 98 96 95 95 93 94 90 84 84 88 90 86 81 81 89 95 95 93 96 100 95 96 91 87 89 92 97 100 94 87 83
137 126 117 115 119 117 109 107 106 104 102 102 103 98 93 94 88 89 89 90 90 89 88 90 89 92 92 91 90 83 87 91 89 89 88 85 89 92 97 100 99 91
126 128 125 124 120 114 112 110 108 104 105 105 102 106 103 94 96 93 90 91 93 93 89 86 90 97 96 97 95 90 90 93 89 89 88 88 87 87 89 94 98 94
130 132 130 130 127 120 117 114 108 102 100 104 108 106 102 101 97 96 96 95 98 99 97 92 91 96 98 98 98 94 90 90 92 89 85 80 74 69 69 70 70 85
138 134 133 132 130 128 120 116 114 113 110 109 105 106 108 109 110 105 100 98 95 97 96 89 87 91 92 89 85 90 92 90 91 89 87 81 76 73 69 70 69 75
148 142 137 135 132 130 126 123 121 122 121 119 107 99 92 98 92 95 101 97 95 96 95 91 83 75 79 82 86 91 91 90 92 90 89 85 77 72 69 60 58 57
154 148 146 145 141 133 127 124 122 118 114 120 112 110 109 101 101 97 96 99 96 94 97 92 85 78 76 83 91 98 96 94 95 93 89 87 80 74 68 59 55 52
158 152 150 148 144 141 137 131 118 108 116 124 121 122 112 110 110 101 90 89 93 91 94 100 92 83 86 88 89 89 91 101 100 98 91 84 80 64 60 58 45 45
158 156 153 152 148 145 142 139 136 134 127 112 106 105 106 108 103 102 96 84 85 93 89 93 93 85 84 87 87 87 86 95 99 98 90 77 79 71 60 58 46 33
162 156 153 148 145 139 137 132 128 123 126 123 116 112 113 109 102 101 101 93 85 84 85 87 92 89 87 87 89 88 88 90 85 91 91 91 76 80 74 59 55 38